ARIANE 44L+3 DEB (SPELDA, 23867

Orbit data source: Space-Track

ARIANE 44L+3 DEB (SPELDA, 23867 is space debris in HEO originally from a launch on Thu, 16 May 1996 UTC launched from the French Guiana (FRGUI). Debris objects in space refer to the collection of defunct objects orbiting the Earth. Examples of debris include non-operational satellites, rocket bodies, and fragments generated from explosions, collisions, or faulty payload assembly.

Loading next visibility...
Identifier
23867, 1996-030D
Orbit
HEO
Country
Flag of FRFR
Related business
Manufacturer
MMS/Stevenage
Mission
Spacecraft
Bus & Motor
SPELDA, Unknown motor
Mass
370 kg wet, 370 kg dry
Launch date (UTC)
1996-05-16 (29 years ago)
Launch vehicle
Unknown
Launch site
French Guiana (FRGUI)
Object type
Payload
Rocket body
Debris
Shape & HBR
Cyl + Trunc Cone, 2.0 m
Radar Cross Section
15.080 m², Large (>1 m²)

Expand to show TLE details & history
Last TLE update: 15 hours ago

TLE from 15 hours ago
0 ARIANE 44L+3 DEB (SPELDA
1 23867U 96030D   25251.00124359  .00015939  00000-0  85572-2 0  9999
2 23867   3.8094  85.8124 6610812  94.6003 337.9901  3.12788918289925
Epoch: 2025-09-08T00:01Z
TLE epoch observation values (Epoch: 2025-09-08T00:01:47.446Z)
Latitude
-0.00001°
Longitude
98.5115°
Altitude
5,270.718 km
Speed
6.946 km/s
True Right ascension
05h 45m 05s
True Declination
0° 00' 00"
Sunlit
Object was in daylight at epoch
Visualization orbit readout
Latitude
Unknown
Longitude
Unknown
Altitude
Unknown
Speed
Unknown
Apparent Right ascension
Unknown
Apparent Declination
Unknown
Sunlit
N/A
Visualization observer readout
Local Sidereal Time
06:52:17
Azimuth
Unknown
Elevation
Unknown
Doppler factor
Unknown
Orbital elements
Apogee altitude
26,436.988 km
Perigee altitude
317.299 km
Semi-major axis
19,755.28 km
Eccentricity
0.66108
Inclination
3.8094°
RAAN
85.8124°
Arg. of periapsis
94.6003°
True anomaly
265.91237°
Mean anomaly
337.9901°
Eccentric anomaly
308.24073°
Mean motion
0.78166 °/min
Orbital period
460.56 mins
BSTAR
0.0085572
Loading maneuver chart data...
Computing Atmospheric mass density...
Loading historical data...
Loading historical data...
Loading historical data...
Loading historical data...
Loading historical data...
Loading historical data...
Loading historical data...
Other satellites on launch #30 in the year 1996 (1996-05-16 UTC)

Documentation

Showing up to 5 results
|